period_start,C,m1,H,J0,J1,J2,J3,J4,J5,JA,JB,JC,JD,JJ,JK,JN,#
2017-09-15 00:01:38,0.00,0.02,0.00,23.89,26.48,29.05,13.81,40.00,1024.92,2036.92,3592.01,3088.00,3544.08,600.12,599.29,9.35,0000 0000 0000 0000 000000
2017-09-15 00:06:39,0.00,0.02,0.00,23.89,26.47,29.06,13.91,40.31,1024.92,2036.92,3592.01,3088.00,3544.07,600.52,599.64,9.40,0000 0000 0000 0000 000000
2017-09-15 00:11:41,0.00,0.02,0.00,23.89,26.47,29.06,13.81,40.05,1024.92,2036.96,3592.01,3088.00,3544.23,600.12,599.20,9.45,0000 0000 0000 0000 000000
2017-09-15 00:16:42,0.00,0.02,0.00,23.89,26.47,29.04,13.85,40.08,1024.92,2036.97,3592.00,3088.00,3544.12,599.95,598.83,9.50,0000 0000 0000 0000 000000
2017-09-15 00:21:44,0.00,0.02,0.00,23.95,26.47,29.04,13.85,40.01,1024.88,2036.96,3592.00,3088.00,3544.06,600.10,599.04,9.55,0000 0000 0000 0000 000000
2017-09-15 00:26:45,-0.00,0.02,0.00,23.90,26.47,29.02,13.81,40.03,1024.89,2036.96,3592.00,3088.00,3544.02,599.99,599.06,9.60,0000 0000 0000 0000 000000
2017-09-15 00:31:46,-0.00,0.02,0.00,23.92,26.47,29.02,13.87,39.94,1024.75,2036.96,3592.00,3088.00,3544.04,600.46,599.30,9.65,0000 0000 0000 0000 000000
2017-09-15 00:36:48,0.00,0.02,0.00,23.91,26.45,29.01,13.86,39.98,1024.56,2036.98,3592.00,3088.00,3544.08,600.14,598.92,9.70,0000 0000 0000 0000 000000
2017-09-15 00:41:49,-0.00,0.02,0.00,23.92,26.45,29.03,13.80,40.02,1024.46,2036.98,3592.01,3088.01,3544.20,599.89,598.71,9.75,0000 0000 0000 0000 000000
2017-09-15 00:46:50,-0.00,0.02,0.00,23.95,26.45,29.00,13.85,39.92,1024.47,2036.99,3592.01,3088.02,3544.52,600.07,598.78,9.80,0000 0000 0000 0000 000000
2017-09-15 00:51:51,-0.00,0.02,0.00,23.98,26.45,29.01,13.79,40.00,1024.44,2036.99,3592.00,3088.02,3544.80,600.17,598.81,9.85,0000 0000 0000 0000 000000
2017-09-15 00:56:52,0.00,0.02,0.00,23.98,26.44,29.02,13.81,39.88,1024.43,2036.99,3592.00,3088.01,3544.61,600.11,598.67,9.90,0000 0000 0000 0000 000000
2017-09-15 01:01:54,-0.00,0.02,0.00,24.01,26.43,29.00,13.85,39.88,1024.43,2036.99,3592.00,3088.02,3544.52,600.04,598.49,9.95,0000 0000 0000 0000 000000
2017-09-15 01:06:55,-0.00,0.02,0.00,23.98,26.42,29.03,13.82,40.08,1024.43,2036.99,3592.02,3088.03,3544.75,600.36,599.05,10.00,0000 0000 0000 0000 000000
2017-09-15 01:11:56,-0.00,0.02,0.00,24.02,26.42,29.04,13.77,40.00,1024.43,2036.99,3592.04,3088.09,3544.89,599.45,598.04,10.05,0000 0000 0000 0000 000000
2017-09-15 01:16:58,-0.00,0.02,0.00,24.02,26.42,29.02,13.82,39.89,1024.43,2036.99,3592.10,3088.07,3544.89,600.06,598.61,10.10,0000 0000 0000 0000 000000
2017-09-15 01:21:59,0.00,0.02,0.00,24.05,26.42,29.04,13.93,40.02,1024.39,2036.99,3592.07,3088.06,3544.89,600.33,598.62,10.15,0000 0000 0000 0000 000000
2017-09-15 01:27:00,-0.00,0.02,0.00,24.05,26.42,29.04,13.86,39.99,1024.25,2036.99,3592.03,3088.09,3544.93,600.16,598.52,10.20,0000 0000 0000 0000 000000
2017-09-15 01:32:02,0.00,0.02,0.00,24.06,26.42,29.05,13.75,39.92,1024.16,2037.00,3592.01,3088.08,3544.92,599.95,598.26,10.25,0000 0000 0000 0000 000000
2017-09-15 01:37:03,0.00,0.02,0.00,24.09,26.41,29.05,13.86,40.00,1024.06,2037.00,3592.02,3088.11,3544.95,600.09,598.29,10.30,0000 0000 0000 0000 000000
2017-09-15 01:42:05,0.00,0.02,0.00,24.04,26.40,29.06,13.79,40.13,1023.96,2037.01,3592.01,3088.08,3544.95,599.92,598.16,10.35,0000 0000 0000 0000 000000
2017-09-15 01:47:06,-0.00,0.02,0.00,24.07,26.40,29.08,13.77,40.08,1023.95,2037.01,3592.02,3088.09,3544.97,599.80,597.99,10.40,0000 0000 0000 0000 000000
2017-09-15 01:52:07,0.00,0.02,0.00,24.05,26.40,29.05,13.82,40.05,1023.96,2037.01,3592.03,3088.12,3544.93,600.22,598.28,10.45,0000 0000 0000 0000 000000
2017-09-15 01:57:09,-0.00,0.02,0.00,24.09,26.38,29.03,13.74,40.05,1023.95,2037.01,3592.05,3088.20,3544.97,599.83,598.03,10.50,0000 0000 0000 0000 000000
2017-09-15 02:02:10,-0.00,0.02,0.00,24.10,26.37,29.07,13.84,40.23,1023.94,2037.01,3592.04,3088.20,3544.98,599.68,597.88,10.55,0000 0000 0000 0000 000000
2017-09-15 02:07:11,0.00,0.02,0.00,24.06,26.37,29.04,13.76,39.96,1023.94,2037.07,3592.02,3088.26,3544.98,599.93,598.18,10.60,0000 0000 0000 0000 000000
2017-09-15 02:12:12,-0.00,0.02,0.00,24.07,26.36,29.05,13.81,40.08,1023.94,2037.07,3592.02,3088.30,3544.99,600.01,598.17,10.65,0000 0000 0000 0000 000000
2017-09-15 02:17:13,0.00,0.02,0.00,24.03,26.35,29.04,13.75,39.99,1023.94,2037.22,3592.09,3088.72,3544.99,600.09,598.33,10.70,0000 0000 0000 0000 000000
2017-09-15 02:22:15,-0.00,0.02,0.00,24.04,26.35,29.08,13.81,40.08,1023.93,2037.29,3592.04,3088.83,3544.99,600.05,598.33,10.75,0000 0000 0000 0000 000000
2017-09-15 02:27:16,0.01,0.02,0.00,24.03,26.33,29.09,13.82,40.16,1023.85,2037.31,3592.06,3088.93,3544.99,600.02,598.23,10.80,0000 0000 0000 0000 000000
2017-09-15 02:32:17,0.02,0.02,0.00,24.07,26.32,29.08,13.80,40.11,1023.80,2037.51,3592.18,3088.97,3544.99,599.91,597.94,10.85,0000 0000 0000 0000 000000
2017-09-15 02:37:18,-0.01,0.03,0.00,24.04,26.32,29.08,13.87,40.08,1023.69,2037.63,3592.53,3088.98,3545.00,600.38,598.42,10.90,0000 0000 0000 0000 000000
2017-09-15 02:42:19,0.01,0.03,0.00,24.08,26.31,29.06,13.83,40.05,1023.59,2037.64,3592.46,3088.98,3545.00,599.97,597.95,10.95,0000 0000 0000 0000 000000
2017-09-15 02:47:21,-0.02,0.02,0.00,24.08,26.30,29.07,13.76,40.19,1023.51,2037.42,3592.82,3088.99,3545.00,600.08,597.99,11.00,0000 0000 0000 0000 000000
2017-09-15 02:52:22,-0.01,0.02,0.00,24.12,26.30,29.04,13.82,40.03,1023.48,2037.34,3592.66,3088.99,3545.00,599.97,597.77,11.05,0000 0000 0000 0000 000000
2017-09-15 02:57:23,0.02,0.02,0.00,24.12,26.30,29.07,13.82,39.91,1023.48,2037.54,3592.89,3088.99,3545.01,600.10,597.90,11.10,0000 0000 0000 0000 000000
2017-09-15 03:02:25,0.00,0.02,0.00,24.05,26.29,29.06,13.81,39.93,1023.46,2037.52,3592.94,3088.99,3545.02,599.90,597.86,11.15,0000 0000 0000 0000 000000
2017-09-15 03:07:25,0.00,0.02,0.00,24.08,26.27,29.08,13.80,39.99,1023.45,2037.59,3592.89,3088.99,3545.04,599.73,597.59,11.20,0000 0000 0000 0000 000000
2017-09-15 03:12:27,0.01,0.03,0.00,24.11,26.27,29.08,13.76,40.05,1023.45,2037.78,3592.98,3088.99,3545.10,600.15,597.97,11.25,0000 0000 0000 0000 000000
2017-09-15 03:17:28,0.01,0.03,0.00,24.09,26.27,29.08,13.79,40.21,1023.45,2037.91,3592.98,3089.00,3545.42,600.03,597.86,11.30,0000 0000 0000 0000 000000
2017-09-15 03:22:29,0.00,0.03,0.00,24.03,26.27,29.11,13.86,40.21,1023.44,2037.96,3592.98,3089.00,3545.44,600.05,597.94,11.35,0000 0000 0000 0000 000000
2017-09-15 03:27:30,0.00,0.03,0.00,24.05,26.27,29.12,13.81,40.13,1023.42,2037.98,3592.98,3089.00,3545.30,600.31,598.15,11.41,0000 0000 0000 0000 000000
2017-09-15 03:32:32,-0.00,0.03,0.00,24.09,26.27,29.12,13.82,40.08,1023.41,2037.97,3592.99,3089.01,3545.47,600.21,597.96,11.46,0000 0000 0000 0000 000000
2017-09-15 03:37:33,0.00,0.03,0.00,24.03,26.26,29.13,13.77,40.07,1023.40,2037.97,3592.99,3089.00,3545.57,599.65,597.65,11.51,0000 0000 0000 0000 000000
2017-09-15 03:42:35,0.00,0.03,0.00,24.08,26.26,29.15,13.84,40.10,1023.36,2037.96,3592.97,3089.00,3545.19,600.05,597.88,11.56,0000 0000 0000 0000 000000
2017-09-15 03:47:36,-0.00,0.03,0.00,24.06,26.26,29.14,13.76,40.04,1023.27,2037.89,3592.94,3089.00,3545.05,599.77,597.50,11.61,0000 0000 0000 0000 000000
2017-09-15 03:52:37,0.00,0.03,0.00,24.00,26.27,29.17,13.77,39.99,1023.18,2037.92,3592.98,3089.01,3545.10,599.71,597.58,11.66,0000 0000 0000 0000 000000
2017-09-15 03:57:39,0.00,0.03,0.00,24.02,26.27,29.18,13.73,39.99,1023.12,2037.96,3592.99,3089.01,3545.30,599.86,597.60,11.71,0000 0000 0000 0000 000000
2017-09-15 04:02:40,-0.00,0.03,0.00,24.06,26.27,29.18,13.80,40.05,1023.09,2037.94,3592.94,3089.00,3545.08,599.96,597.54,11.76,0000 0000 0000 0000 000000
2017-09-15 04:07:41,0.01,0.03,0.00,23.96,26.27,29.18,13.75,40.01,1023.09,2037.97,3592.81,3089.00,3545.07,599.91,597.92,11.81,0000 0000 0000 0000 000000
2017-09-15 04:12:42,0.01,0.03,0.00,24.01,26.27,29.15,13.87,40.06,1023.05,2037.97,3592.24,3089.00,3545.05,600.10,597.87,11.86,0000 0000 0000 0000 000000
2017-09-15 04:17:44,0.00,0.03,0.00,23.98,26.29,29.15,13.78,39.97,1023.00,2037.96,3592.05,3089.00,3545.00,599.86,597.57,11.91,0000 0000 0000 0000 000000
2017-09-15 04:22:45,0.00,0.03,0.00,23.97,26.30,29.10,13.81,40.05,1022.98,2037.97,3592.02,3088.98,3545.00,600.13,597.93,11.96,0000 0000 0000 0000 000000
2017-09-15 04:27:46,0.00,0.03,0.00,24.04,26.30,29.07,13.77,40.07,1022.98,2037.97,3592.01,3088.97,3545.00,600.02,597.68,12.01,0000 0000 0000 0000 000000
2017-09-15 04:32:48,-0.00,0.03,0.00,23.98,26.30,29.12,13.77,40.02,1022.96,2037.96,3592.04,3088.96,3545.00,599.85,597.62,12.06,0000 0000 0000 0000 000000
2017-09-15 04:37:49,-0.00,0.03,0.00,23.99,26.32,29.06,13.83,40.03,1022.96,2037.94,3592.03,3088.97,3545.00,600.16,597.95,12.11,0000 0000 0000 0000 000000
2017-09-15 04:42:50,0.00,0.03,0.00,24.00,26.32,29.03,13.78,39.95,1022.96,2037.95,3592.00,3088.94,3545.00,599.81,597.62,12.16,0000 0000 0000 0000 000000
2017-09-15 04:47:52,-0.01,0.03,0.00,23.93,26.33,29.08,13.82,40.03,1022.96,2037.84,3592.00,3088.78,3545.00,600.01,597.83,12.21,0000 0000 0000 0000 000000
2017-09-15 04:52:53,0.00,0.03,0.00,23.94,26.35,29.05,13.82,39.98,1022.96,2037.80,3592.00,3088.71,3544.98,599.98,597.89,12.26,0000 0000 0000 0000 000000
2017-09-15 04:57:54,-0.01,0.03,0.00,23.92,26.35,29.04,13.86,40.13,1022.96,2037.60,3592.00,3088.65,3544.96,600.25,598.11,12.31,0000 0000 0000 0000 000000
2017-09-15 05:02:55,-0.01,0.03,0.00,23.95,26.36,29.05,13.86,40.18,1022.96,2037.53,3591.99,3088.50,3544.98,600.03,597.94,12.36,0000 0000 0000 0000 000000
2017-09-15 05:07:56,0.02,0.03,0.00,23.95,26.37,29.06,13.84,40.08,1022.95,2037.72,3591.97,3088.23,3544.95,599.93,597.84,12.41,0000 0000 0000 0000 000000
2017-09-15 05:12:57,-0.00,0.03,0.00,23.90,26.37,29.07,13.88,40.22,1022.94,2037.66,3591.94,3088.12,3544.90,599.99,597.91,12.46,0000 0000 0000 0000 000000
2017-09-15 05:17:59,0.00,0.03,0.00,23.95,26.39,29.08,13.87,40.08,1022.91,2037.55,3591.75,3088.08,3544.65,599.85,597.74,12.51,0000 0000 0000 0000 000000
2017-09-15 05:23:00,-0.01,0.03,0.00,23.93,26.40,29.08,13.71,40.10,1022.89,2037.41,3591.25,3088.01,3544.19,599.77,597.63,12.56,0000 0000 0000 0000 000000
2017-09-15 05:28:01,0.00,0.03,0.00,23.90,26.40,29.08,13.88,40.14,1022.84,2037.37,3591.14,3088.01,3544.10,600.15,598.05,12.61,0000 0000 0000 0000 000000
2017-09-15 05:33:03,-0.02,0.03,0.00,23.92,26.42,29.10,13.81,40.06,1022.62,2037.19,3591.30,3088.00,3544.05,599.91,597.62,12.66,0000 0000 0000 0000 000000
2017-09-15 05:38:04,-0.01,0.03,0.00,23.90,26.42,29.11,13.78,39.97,1022.52,2037.07,3591.14,3088.00,3544.03,599.71,597.46,12.71,0000 0000 0000 0000 000000
2017-09-15 05:43:05,0.00,0.03,0.00,23.88,26.43,29.12,13.79,40.04,1022.50,2037.04,3591.03,3088.00,3544.00,600.05,597.76,12.76,0000 0000 0000 0000 000000
2017-09-15 05:48:06,0.00,0.03,0.00,23.90,26.45,29.12,13.78,40.01,1022.49,2037.01,3591.01,3088.00,3544.00,600.15,597.89,12.81,0000 0000 0000 0000 000000
2017-09-15 05:53:08,0.00,0.03,0.00,23.84,26.45,29.15,13.89,40.19,1022.49,2037.00,3591.02,3088.00,3544.00,600.38,598.15,12.86,0000 0000 0000 0000 000000
2017-09-15 05:58:09,0.00,0.03,0.00,23.86,26.46,29.14,13.78,39.97,1022.48,2037.00,3591.01,3087.98,3543.99,599.94,597.68,12.91,0000 0000 0000 0000 000000
2017-09-15 06:03:10,0.00,0.03,0.00,23.85,26.47,29.16,13.77,39.98,1022.48,2037.00,3591.00,3087.96,3543.98,600.16,597.93,12.96,0000 0000 0000 0000 000000
2017-09-15 06:08:12,0.00,0.03,0.00,23.87,26.47,29.16,13.78,39.99,1022.48,2036.99,3591.00,3087.96,3543.95,599.95,597.75,13.01,0000 0000 0000 0000 000000
2017-09-15 06:13:13,0.00,0.03,0.00,23.88,26.49,29.18,13.80,40.03,1022.45,2036.99,3591.00,3087.93,3543.85,599.80,597.40,13.06,0000 0000 0000 0000 000000
2017-09-15 06:18:14,0.00,0.03,0.00,23.86,26.50,29.20,13.82,40.02,1022.45,2036.98,3591.00,3087.85,3543.57,599.95,597.59,13.11,0000 0000 0000 0000 000000
2017-09-15 06:23:16,0.01,0.03,0.00,23.85,26.50,29.18,13.76,39.98,1022.33,2036.98,3590.98,3087.77,3543.28,599.94,597.54,13.16,0000 0000 0000 0000 000000
2017-09-15 06:28:17,-0.00,0.03,0.00,23.86,26.51,29.19,13.73,39.92,1022.14,2036.97,3590.98,3087.76,3543.29,599.89,597.33,13.21,0000 0000 0000 0000 000000
2017-09-15 06:33:18,0.01,0.03,0.00,23.85,26.52,29.20,13.79,39.83,1022.06,2036.98,3590.96,3087.43,3543.10,599.80,597.27,13.26,0000 0000 0000 0000 000000
2017-09-15 06:38:19,0.01,0.03,0.00,23.89,26.52,29.21,13.80,39.88,1022.07,2036.97,3590.84,3087.20,3543.03,600.00,597.50,13.31,0000 0000 0000 0000 000000
2017-09-15 06:43:21,0.01,0.03,0.00,23.86,26.53,29.21,13.86,40.02,1022.13,2036.93,3590.26,3087.03,3543.00,600.18,597.68,13.36,0000 0000 0000 0000 000000
2017-09-15 06:48:22,-0.00,0.03,0.00,23.90,26.55,29.22,13.72,39.88,1022.20,2036.87,3590.09,3087.00,3543.00,600.01,597.60,13.41,0000 0000 0000 0000 000000
2017-09-15 06:53:24,-0.01,0.03,0.00,23.77,26.55,29.23,13.86,40.12,1022.13,2036.64,3590.04,3087.00,3542.99,600.41,598.19,13.46,0000 0000 0000 0000 000000
2017-09-15 06:58:25,-0.01,0.03,0.00,23.76,26.55,29.23,13.78,40.21,1022.04,2036.54,3590.02,3087.00,3542.98,600.04,597.73,13.51,0000 0000 0000 0000 000000
2017-09-15 07:03:26,-0.01,0.03,0.00,23.84,26.57,29.25,13.78,40.00,1022.08,2036.39,3590.00,3087.00,3542.96,600.08,597.56,13.56,0000 0000 0000 0000 000000
2017-09-15 07:08:27,0.00,0.03,0.00,23.83,26.57,29.24,13.82,40.11,1022.04,2036.42,3590.00,3087.00,3542.85,600.13,597.67,13.62,0000 0000 0000 0000 000000
2017-09-15 07:13:29,-0.02,0.02,0.00,23.81,26.57,29.25,13.84,40.02,1022.01,2036.13,3590.00,3087.00,3542.41,599.91,597.50,13.67,0000 0000 0000 0000 000000
2017-09-15 07:18:30,0.00,0.03,0.00,23.84,26.57,29.27,13.85,40.17,1022.01,2036.10,3589.98,3086.99,3542.17,600.16,597.71,13.72,0000 0000 0000 0000 000000
2017-09-15 07:23:31,-0.00,0.02,0.00,23.89,26.57,29.27,13.83,40.13,1022.02,2036.06,3589.97,3086.96,3542.05,600.17,597.54,13.77,0000 0000 0000 0000 000000
2017-09-15 07:28:33,0.01,0.02,0.00,23.83,26.59,29.27,13.80,40.04,1022.01,2036.04,3589.71,3086.94,3542.02,600.01,597.54,13.82,0000 0000 0000 0000 000000
2017-09-15 07:33:34,0.01,0.03,0.00,23.81,26.60,29.28,13.79,40.04,1022.02,2036.02,3589.14,3086.74,3542.00,600.04,597.56,13.87,0000 0000 0000 0000 000000
2017-09-15 07:38:35,-0.00,0.03,0.00,23.83,26.60,29.29,13.79,39.96,1022.01,2036.03,3589.10,3086.72,3542.00,600.02,597.50,13.92,0000 0000 0000 0000 000000
2017-09-15 07:43:37,0.01,0.03,0.00,23.84,26.60,29.31,13.86,40.15,1021.99,2036.03,3589.07,3086.52,3542.00,600.09,597.53,13.97,0000 0000 0000 0000 000000
2017-09-15 07:48:38,0.00,0.03,0.00,23.76,26.60,29.30,13.81,40.19,1021.99,2036.02,3589.01,3086.21,3541.99,600.28,597.97,14.02,0000 0000 0000 0000 000000
2017-09-15 07:53:39,0.01,0.03,0.00,23.79,26.62,29.30,13.83,40.13,1022.01,2036.05,3589.01,3086.18,3541.99,599.89,597.51,14.07,0000 0000 0000 0000 000000
2017-09-15 07:58:40,-0.00,0.03,0.00,23.75,26.62,29.32,13.84,40.16,1021.99,2036.04,3589.00,3086.07,3541.99,600.24,597.84,14.12,0000 0000 0000 0000 000000
2017-09-15 08:03:42,0.00,0.03,0.00,23.85,26.62,29.32,13.80,40.02,1021.99,2036.04,3588.99,3086.03,3541.98,599.91,597.53,14.17,0000 0000 0000 0000 000000
2017-09-15 08:08:43,-0.00,0.03,0.00,23.84,26.62,29.32,13.78,40.11,1022.00,2036.03,3588.99,3086.03,3541.96,600.17,597.65,14.22,0000 0000 0000 0000 000000
2017-09-15 08:13:44,0.00,0.03,0.00,23.77,26.62,29.32,13.83,40.13,1021.99,2036.00,3588.99,3086.05,3541.96,599.80,597.43,14.27,0000 0000 0000 0000 000000
2017-09-15 08:18:45,0.00,0.03,0.00,23.74,26.63,29.33,13.79,40.04,1022.00,2036.00,3588.99,3086.03,3541.97,599.97,597.64,14.32,0000 0000 0000 0000 000000
2017-09-15 08:23:46,0.00,0.03,0.00,23.74,26.64,29.32,13.81,40.24,1021.99,2036.00,3588.99,3086.01,3541.66,599.65,597.49,14.37,0000 0000 0000 0000 000000
2017-09-15 08:28:48,0.00,0.03,0.00,23.78,26.65,29.33,13.77,40.16,1022.01,2036.00,3588.98,3086.00,3541.18,600.01,597.58,14.42,0000 0000 0000 0000 000000
2017-09-15 08:33:49,0.00,0.03,0.00,23.79,26.65,29.35,13.84,40.06,1022.01,2035.99,3588.98,3086.00,3541.06,599.92,597.51,14.47,0000 0000 0000 0000 000000
2017-09-15 08:38:50,0.00,0.03,0.00,23.77,26.65,29.34,13.82,40.05,1022.03,2035.99,3588.94,3086.00,3541.04,600.12,597.85,14.52,0000 0000 0000 0000 000000
2017-09-15 08:43:51,0.00,0.03,0.00,23.79,26.65,29.34,13.82,40.03,1022.03,2035.99,3588.69,3086.00,3541.02,599.65,597.35,14.57,0000 0000 0000 0000 000000
2017-09-15 08:48:53,-0.00,0.03,0.00,23.81,26.65,29.38,13.87,40.21,1022.00,2035.99,3588.46,3085.99,3541.01,599.99,597.54,14.62,0000 0000 0000 0000 000000
2017-09-15 08:53:54,-0.00,0.03,0.00,23.75,26.65,29.36,13.80,40.09,1021.99,2035.99,3588.59,3085.99,3541.00,599.71,597.38,14.67,0000 0000 0000 0000 000000
2017-09-15 08:58:55,0.00,0.03,0.00,23.76,26.65,29.35,13.81,40.04,1021.99,2035.99,3588.32,3085.98,3541.00,600.41,597.96,14.72,0000 0000 0000 0000 000000
2017-09-15 09:03:56,0.00,0.03,0.00,23.80,26.65,29.37,13.88,40.10,1021.99,2035.99,3588.03,3085.96,3540.99,600.19,597.81,14.77,0000 0000 0000 0000 000000
2017-09-15 09:08:57,0.00,0.03,0.00,23.76,26.66,29.38,13.78,40.02,1021.99,2035.99,3588.02,3085.96,3540.99,599.79,597.44,14.82,0000 0000 0000 0000 000000
2017-09-15 09:13:59,0.00,0.03,0.00,23.77,26.67,29.40,13.79,40.07,1021.99,2035.98,3588.01,3085.92,3540.97,599.85,597.50,14.87,0000 0000 0000 0000 000000
2017-09-15 09:19:00,0.00,0.03,0.00,23.67,26.67,29.38,13.86,40.10,1021.99,2035.97,3588.00,3085.92,3540.97,600.16,597.87,14.92,0000 0000 0000 0000 000000
2017-09-15 09:24:01,0.01,0.03,0.00,23.75,26.67,29.38,13.81,39.92,1021.98,2035.98,3588.00,3085.61,3540.91,599.99,597.66,14.97,0000 0000 0000 0000 000000
2017-09-15 09:29:02,0.00,0.03,0.00,23.79,26.67,29.39,13.81,40.08,1021.96,2035.98,3587.99,3085.42,3540.84,599.87,597.42,15.02,0000 0000 0000 0000 000000
2017-09-15 09:34:04,0.01,0.03,0.00,23.83,26.67,29.40,13.82,40.12,1021.93,2035.97,3587.95,3085.22,3540.59,599.93,597.45,15.07,0000 0000 0000 0000 000000
2017-09-15 09:39:05,-0.00,0.03,0.00,23.78,26.67,29.41,13.82,40.09,1021.80,2035.97,3587.96,3085.18,3540.41,599.78,597.37,15.12,0000 0000 0000 0000 000000
2017-09-15 09:44:06,0.01,0.03,0.00,23.80,26.67,29.39,13.80,40.12,1021.61,2035.97,3587.84,3085.07,3540.10,599.82,597.21,15.17,0000 0000 0000 0000 000000
2017-09-15 09:49:07,0.01,0.03,0.00,23.82,26.67,29.38,13.89,40.12,1021.71,2035.97,3587.21,3085.03,3540.06,599.93,597.35,15.22,0000 0000 0000 0000 000000
2017-09-15 09:54:08,-0.00,0.03,0.00,23.78,26.67,29.40,13.78,40.05,1021.63,2035.97,3587.05,3085.00,3540.02,599.75,597.16,15.27,0000 0000 0000 0000 000000
2017-09-15 09:59:09,0.00,0.03,0.00,23.86,26.67,29.42,13.88,40.15,1021.53,2035.98,3587.09,3085.01,3540.02,600.28,597.37,15.32,0000 0000 0000 0000 000000
2017-09-15 10:04:11,0.00,0.03,0.00,23.81,26.67,29.40,13.79,40.02,1021.51,2035.98,3587.04,3085.01,3540.01,599.83,597.13,15.37,0000 0000 0000 0000 000000
2017-09-15 10:09:12,0.00,0.03,0.00,23.74,26.67,29.40,13.82,40.13,1021.51,2035.98,3587.01,3085.01,3540.00,599.93,597.27,15.42,0000 0000 0000 0000 000000
2017-09-15 10:14:13,-0.00,0.03,0.00,23.80,26.67,29.41,13.76,40.07,1021.50,2035.98,3587.00,3085.00,3540.00,599.67,597.01,15.47,0000 0000 0000 0000 000000
2017-09-15 10:19:14,-0.00,0.03,0.00,23.77,26.67,29.41,13.78,40.13,1021.50,2035.98,3587.00,3085.00,3540.00,599.59,597.02,15.52,0000 0000 0000 0000 000000
2017-09-15 10:24:15,0.00,0.03,0.00,23.82,26.67,29.44,13.76,40.09,1021.50,2035.97,3586.99,3085.00,3540.00,599.86,597.20,15.57,0000 0000 0000 0000 000000
2017-09-15 10:29:16,0.00,0.03,0.00,23.77,26.67,29.42,13.87,40.23,1021.50,2035.98,3586.99,3085.00,3539.98,600.01,597.45,15.62,0000 0000 0000 0000 000000
2017-09-15 10:34:18,-0.00,0.03,0.00,23.75,26.67,29.44,13.89,40.14,1021.50,2035.96,3586.97,3085.00,3539.98,600.15,597.54,15.67,0000 0000 0000 0000 000000
2017-09-15 10:39:19,0.00,0.03,0.00,23.77,26.67,29.42,13.79,40.08,1021.50,2035.97,3586.98,3085.00,3539.97,599.72,597.08,15.72,0000 0000 0000 0000 000000
2017-09-15 10:44:20,0.00,0.03,0.00,23.78,26.67,29.46,13.90,40.04,1021.50,2035.98,3586.86,3084.99,3539.96,600.21,597.60,15.77,0000 0000 0000 0000 000000
2017-09-15 10:49:22,0.00,0.03,0.00,23.78,26.67,29.44,13.76,39.84,1021.50,2035.97,3586.81,3084.98,3539.92,599.90,597.08,15.82,0000 0000 0000 0000 000000
2017-09-15 10:54:24,0.01,0.03,0.00,23.83,26.67,29.42,13.82,40.05,1021.49,2035.97,3586.56,3084.98,3539.88,600.08,597.22,15.87,0000 0000 0000 0000 000000
2017-09-15 10:59:25,0.01,0.03,0.00,23.76,26.67,29.48,13.80,40.07,1021.49,2035.97,3586.23,3084.97,3539.50,600.01,597.31,15.93,0000 0000 0000 0000 000000
2017-09-15 11:04:26,0.00,0.03,0.00,23.81,26.67,29.48,13.76,40.00,1021.47,2035.97,3586.11,3084.95,3539.31,599.94,597.24,15.98,0000 0000 0000 0000 000000
2017-09-15 11:09:27,0.01,0.03,0.00,23.81,26.67,29.46,13.86,40.02,1021.32,2035.98,3586.03,3084.82,3539.08,599.89,597.04,16.03,0000 0000 0000 0000 000000
2017-09-15 11:14:29,-0.00,0.03,0.00,23.75,26.67,29.43,13.78,39.94,1021.07,2035.95,3586.02,3084.85,3539.07,599.87,596.99,16.08,0000 0000 0000 0000 000000
2017-09-15 11:19:30,0.00,0.03,0.00,23.81,26.67,29.42,13.74,39.97,1021.04,2035.94,3586.01,3084.83,3539.05,600.05,597.02,16.13,0000 0000 0000 0000 000000
2017-09-15 11:24:31,0.00,0.03,0.00,23.83,26.67,29.43,13.81,40.01,1021.03,2035.98,3586.01,3084.83,3539.03,600.16,597.04,16.18,0000 0000 0000 0000 000000
2017-09-15 11:29:32,0.00,0.03,0.00,23.76,26.67,29.44,13.86,40.02,1021.03,2035.98,3586.00,3084.77,3539.04,600.31,597.45,16.23,0000 0000 0000 0000 000000
2017-09-15 11:34:34,0.01,0.03,0.00,23.71,26.67,29.40,13.85,39.86,1021.02,2035.97,3586.00,3084.48,3539.01,600.00,597.16,16.28,0000 0000 0000 0000 000000
2017-09-15 11:39:35,0.00,0.03,0.00,23.75,26.67,29.41,13.74,39.77,1021.03,2035.97,3585.99,3084.29,3539.00,599.79,596.87,16.33,0000 0000 0000 0000 000000
2017-09-15 11:44:36,0.00,0.03,0.00,23.78,26.67,29.43,13.79,39.87,1021.02,2035.97,3585.97,3084.14,3539.00,599.98,596.93,16.38,0000 0000 0000 0000 000000
2017-09-15 11:49:38,0.00,0.03,0.00,23.83,26.67,29.45,13.78,39.90,1021.01,2035.96,3585.82,3084.04,3539.00,599.74,596.69,16.43,0000 0000 0000 0000 000000
2017-09-15 11:54:39,0.00,0.03,0.00,23.86,26.67,29.48,13.80,39.90,1021.01,2035.97,3585.80,3084.05,3539.00,600.09,597.07,16.48,0000 0000 0000 0000 000000
2017-09-15 11:59:40,0.00,0.03,0.00,23.84,26.66,29.47,13.75,39.88,1021.01,2035.97,3585.59,3084.03,3539.00,599.95,596.82,16.53,0000 0000 0000 0000 000000
2017-09-15 12:04:41,0.00,0.03,0.00,23.91,26.66,29.49,13.80,39.90,1021.01,2035.98,3585.32,3084.01,3538.98,599.83,596.66,16.58,0000 0000 0000 0000 000000
2017-09-15 12:09:42,-0.00,0.03,0.00,23.85,26.66,29.50,13.76,39.90,1021.01,2035.96,3585.11,3084.00,3538.95,599.78,596.67,16.63,0000 0000 0000 0000 000000
2017-09-15 12:14:44,0.00,0.03,0.00,23.87,26.65,29.46,13.80,39.92,1021.01,2035.98,3585.05,3084.00,3538.94,600.21,597.06,16.68,0000 0000 0000 0000 000000
2017-09-15 12:19:45,0.00,0.03,0.00,23.86,26.65,29.43,13.83,40.02,1020.99,2035.99,3585.02,3084.00,3538.87,600.30,597.18,16.73,0000 0000 0000 0000 000000
2017-09-15 12:24:47,-0.00,0.03,0.00,23.81,26.65,29.42,13.87,39.92,1020.82,2035.96,3585.00,3084.00,3538.59,599.76,596.62,16.78,0000 0000 0000 0000 000000
2017-09-15 12:29:48,0.00,0.03,0.00,23.79,26.65,29.44,13.80,39.93,1020.60,2035.98,3585.01,3084.00,3538.59,600.03,596.85,16.83,0000 0000 0000 0000 000000
2017-09-15 12:34:50,0.01,0.04,0.00,23.79,26.65,29.43,13.82,40.00,1020.55,2035.98,3584.99,3084.00,3538.24,600.13,596.94,16.88,0000 0000 0000 0000 000000
2017-09-15 12:39:51,0.00,0.04,0.00,23.78,26.65,29.44,13.81,40.17,1020.54,2035.98,3584.99,3084.00,3538.07,600.17,596.71,16.93,0000 0000 0000 0000 000000
2017-09-15 12:44:52,0.00,0.04,0.00,23.87,26.65,29.44,13.89,40.09,1020.53,2035.98,3584.96,3083.99,3538.01,600.23,596.81,16.98,0000 0000 0000 0000 000000
2017-09-15 12:49:54,0.01,0.04,0.00,23.84,26.65,29.45,13.83,40.11,1020.52,2035.99,3584.53,3083.97,3538.01,600.18,596.80,17.03,0000 0000 0000 0000 000000
2017-09-15 12:54:55,0.00,0.04,0.00,23.85,26.65,29.42,13.82,40.13,1020.52,2035.98,3584.14,3083.93,3538.00,599.88,596.50,17.08,0000 0000 0000 0000 000000